Wind_Speed
74 74 77 77 76 76 77 77 77 78 78 78 78 79 79 80 80 82 82 82 83 82 82 83 83 84 84 84 85 86 86 86 86 87 86 86 85 85 86 86 87 88 89 89 90 90 91 91 91 91 91 92 93 94 94 93 93 91 89 86 84 82 81 80 79 78 77 75 72 70 68 68 68 67 65 63 63 63 62 62 63 65 67 68 70 71
74 74 75 76 75 75 77 78 79 79 80 80 80 80 81 81 81 82 82 82 83 83 83 84 85 86 85 84 85 86 87 87 87 87 87 87 87 87 88 88 89 89 90 91 91 92 92 92 91 91 92 93 94 94 94 92 91 88 86 83 81 80 79 78 76 75 73 71 68 66 65 65 65 64 63 62 62 62 62 62 64 67 69 71 72 73
72 72 73 74 75 76 77 79 80 80 80 80 81 81 81 82 82 81 82 83 83 83 84 85 86 87 86 85 86 87 87 87 87 88 88 89 89 89 90 90 90 91 92 92 93 94 93 92 92 93 94 94 94 93 92 90 88 85 82 80 78 76 75 73 71 70 69 67 66 65 64 63 63 64 64 64 64 65 65 66 68 70 72 74 75 76
70 71 72 74 75 77 78 79 79 79 80 80 81 81 81 82 82 82 82 83 84 84 84 85 86 87 86 86 86 87 88 88 89 90 90 91 91 91 91 91 92 92 93 94 94 93 93 93 94 94 94 93 92 91 88 86 83 81 78 75 73 71 70 69 68 67 67 67 67 67 66 65 65 66 67 68 69 70 70 71 73 74 76 77 78 80
70 71 73 74 76 77 78 79 80 80 80 81 82 82 82 83 83 83 83 83 83 83 84 85 86 87 86 86 87 88 89 90 91 91 92 92 92 93 93 93 93 93 93 93 93 93 93 93 94 94 93 90 87 84 81 79 76 75 73 71 70 69 69 69 69 69 69 69 69 69 69 69 69 70 71 72 73 75 75 76 77 78 80 80 81 83
71 72 73 75 77 78 79 81 81 81 81 82 83 83 83 82 82 82 82 82 81 82 84 86 88 88 88 88 89 90 91 91 91 91 91 92 92 92 92 92 92 93 93 92 92 93 93 93 92 91 87 83 79 76 74 73 72 72 71 71 71 71 71 71 72 72 73 73 73 73 74 74 74 75 76 77 77 78 80 80 81 82 83 84 84 85
73 74 76 77 78 79 80 81 81 80 80 79 80 81 80 80 81 81 82 83 83 83 85 89 91 91 91 90 89 89 89 90 90 90 90 90 89 90 90 90 91 91 92 92 92 92 92 91 88 84 79 76 74 73 73 73 73 73 73 74 74 75 75 76 76 77 77 77 77 78 78 79 79 79 80 82 83 83 84 85 86 87 88 89 89 89
73 74 75 75 76 77 77 77 77 76 76 76 77 79 79 81 81 83 84 85 86 86 87 90 92 92 91 90 89 88 88 89 89 88 87 87 86 87 88 89 90 91 92 92 92 91 89 85 81 77 75 74 75 75 75 76 76 77 77 78 79 79 80 80 81 82 82 82 82 83 83 83 84 84 85 86 88 89 90 91 92 93 94 95 96 96
68 69 70 70 71 72 73 74 75 75 76 77 78 80 81 83 84 85 86 87 88 87 87 89 91 91 90 89 88 87 86 86 85 84 84 84 85 86 88 89 90 91 91 90 89 86 82 79 77 76 76 77 78 79 80 80 81 81 82 83 84 84 84 85 86 86 87 87 87 87 88 88 89 90 90 91 92 94 95 96 97 98 99 101 102 103
64 66 67 68 70 72 73 75 76 77 78 80 81 82 83 84 85 86 86 86 87 86 86 88 89 89 88 85 84 84 82 82 82 82 83 84 86 87 88 89 90 89 88 85 82 80 78 78 78 79 80 81 82 83 84 85 85 86 87 88 89 89 90 91 91 92 92 93 93 93 94 94 95 96 96 97 98 99 100 101 103 104 105 107 108 109
65 67 68 70 71 73 75 76 78 79 80 81 82 83 83 83 84 83 84 84 85 84 83 84 85 85 84 81 80 81 81 82 83 83 85 86 87 87 88 88 87 85 82 80 78 78 79 80 81 82 84 85 86 87 88 89 90 91 92 93 94 95 96 96 97 98 98 99 99 99 99 99 99 99 99 100 101 102 103 104 106 107 109 110 112 113
67 69 71 72 74 76 77 78 79 80 80 80 80 81 81 80 81 80 79 81 81 80 80 80 81 81 81 80 80 81 82 83 84 85 85 86 86 85 84 83 81 79 78 78 79 80 82 83 85 86 88 89 90 91 93 93 94 95 96 97 99 100 100 101 101 101 101 100 100 100 100 100 100 100 100 101 101 102 103 105 106 108 109 110 112 114
70 72 73 75 76 77 77 77 77 77 76 76 77 77 77 77 77 75 75 76 77 77 78 79 80 81 80 81 82 82 83 83 83 83 83 82 81 80 79 79 78 78 79 81 82 84 85 87 88 90 92 93 94 95 97 98 99 100 101 101 101 101 101 101 100 100 100 101 101 102 102 103 103 104 104 104 105 105 106 107 109 110 111 113 115 116
72 74 75 75 75 74 74 73 73 73 72 72 73 74 74 75 75 73 73 75 76 77 78 79 80 80 80 81 81 81 81 81 80 79 78 78 78 77 78 79 80 82 83 85 86 88 89 91 92 95 96 97 99 100 101 102 102 102 102 101 101 101 101 101 101 102 103 104 105 106 107 107 108 109 110 110 111 112 112 113 114 115 117 118 119 121
69 71 71 71 71 71 70 70 69 70 70 70 71 73 73 75 76 74 74 74 75 77 77 79 80 78 77 77 77 77 77 77 76 76 76 77 78 80 81 83 85 86 88 89 91 92 93 95 97 99 101 102 102 103 103 102 102 102 102 102 103 103 104 105 106 107 107 108 109 110 111 112 113 114 115 116 116 117 117 117 118 118 119 121 122 123
62 64 66 67 67 67 67 67 68 69 69 69 71 73 74 75 77 77 75 74 74 74 73 74 75 74 73 72 72 73 74 75 76 77 79 81 82 84 86 87 89 91 92 94 95 97 98 100 101 103 103 103 102 102 102 102 103 104 105 106 107 108 109 110 111 112 112 113 114 115 115 116 117 117 117 118 118 118 117 117 117 117 117 118 119 120
56 58 63 65 66 66 66 67 68 70 71 71 71 73 74 74 75 75 72 71 71 70 68 69 70 70 72 72 73 75 77 78 80 82 83 85 87 89 90 92 94 95 97 98 99 100 101 102 103 103 103 102 103 103 105 106 108 109 110 111 112 113 114 115 115 116 117 117 118 118 119 119 119 118 118 117 117 116 116 115 115 114 115 115 116 116
54 55 61 66 66 67 68 68 69 70 71 70 70 70 70 69 69 70 69 68 69 70 69 69 71 72 74 76 78 80 81 83 85 86 88 89 91 93 94 96 97 98 99 99 100 101 101 102 103 103 104 104 106 108 109 111 112 113 114 114 115 116 117 118 119 120 121 121 121 121 121 120 119 118 117 116 115 114 113 113 112 112 112 112 112 113
57 55 59 66 67 67 68 66 66 67 66 66 66 66 67 67 68 70 70 71 73 74 73 73 75 77 79 81 83 84 86 88 89 90 92 93 94 95 96 97 97 98 99 99 100 102 103 105 105 106 107 109 110 112 113 114 115 115 116 117 118 119 120 122 123 123 124 123 122 122 120 119 118 116 115 114 112 111 110 109 108 108 107 107 108 108
59 56 56 61 63 62 62 61 61 62 63 64 66 67 69 70 71 73 74 76 78 79 79 79 79 80 82 84 85 87 88 89 90 91 92 93 94 95 96 97 98 100 101 102 104 106 107 108 109 110 111 112 113 114 115 116 118 119 120 121 122 123 124 125 125 125 124 122 121 119 117 116 114 113 111 109 108 106 105 105 104 104 103 103 104 104
55 54 52 54 57 59 60 59 59 62 64 66 69 71 72 74 76 77 77 79 81 82 82 82 81 81 82 85 86 88 89 90 91 92 93 95 96 97 99 100 102 103 104 106 107 108 110 110 111 112 114 115 116 117 119 120 122 124 125 126 126 127 126 126 125 123 121 119 117 115 114 112 111 109 108 107 106 105 104 104 103 103 102 102 102 102
51 51 50 53 57 60 62 63 63 65 68 70 72 74 75 76 78 78 78 79 82 83 84 85 83 81 83 86 89 90 92 93 94 95 96 98 99 100 102 103 104 105 107 108 109 110 111 112 114 116 118 119 121 122 124 126 127 128 128 128 127 126 124 123 121 119 118 116 114 112 111 110 109 108 108 107 106 106 105 104 103 102 100 99 99 99
53 53 54 56 59 63 65 65 66 68 70 71 73 74 75 76 77 79 78 79 81 82 85 87 86 84 85 88 91 92 94 96 97 98 99 101 102 103 105 106 107 109 110 111 113 114 116 117 119 121 122 124 125 127 128 129 129 128 127 126 124 123 121 119 118 116 115 113 112 111 110 109 109 108 107 106 105 105 103 102 101 100 99 98 98 97
57 57 57 57 60 64 66 66 67 68 70 72 73 75 76 77 79 80 81 82 82 84 87 90 90 89 90 92 94 96 98 100 101 103 104 105 107 108 110 111 112 113 115 116 118 119 120 122 124 125 126 127 127 127 127 127 125 124 123 122 121 119 118 117 115 114 113 112 112 111 111 110 109 108 107 106 105 103 102 102 101 101 100 100 99 99
59 60 59 57 58 60 63 65 67 69 72 74 77 78 79 81 82 84 85 87 88 89 91 94 95 95 96 97 99 100 102 103 105 106 108 109 111 112 114 115 116 117 119 120 121 123 124 125 126 126 125 125 124 124 123 122 121 121 120 119 118 117 115 114 113 112 112 112 111 111 110 109 108 107 107 106 106 105 105 104 103 102 101 100 99 98
59 62 63 63 63 63 63 65 68 70 73 76 80 83 84 85 86 88 89 90 92 92 94 96 98 98 100 101 102 103 105 106 107 109 111 112 114 115 117 118 119 120 121 122 123 123 123 123 123 122 121 121 120 120 119 119 118 118 117 116 115 114 113 112 112 111 111 111 110 109 108 107 107 107 107 107 106 106 105 104 102 101 99 98 97 96
63 67 69 71 73 74 72 73 75 76 76 78 81 84 86 87 88 90 91 92 94 94 95 98 100 101 103 104 105 107 108 109 111 112 114 115 117 118 119 119 120 120 120 120 119 119 119 119 119 118 118 117 117 116 116 115 115 114 113 112 112 112 111 111 110 110 109 109 109 108 108 108 108 108 107 106 105 104 102 100 99 98 97 96 95 94
68 70 72 74 77 80 79 78 79 80 80 81 82 84 86 88 89 91 92 94 96 97 98 101 103 105 107 108 109 110 111 113 114 115 116 117 117 118 118 117 117 117 117 116 116 116 116 116 115 115 114 114 113 112 112 111 111 110 110 110 110 110 109 109 108 108 108 109 109 109 109 108 108 107 105 104 102 100 99 98 97 96 95 94 93 92
70 71 72 73 76 81 81 80 81 83 83 84 84 85 87 89 91 93 95 97 100 101 103 105 107 109 110 111 112 112 113 113 114 114 115 114 114 114 114 114 114 114 113 113 113 114 113 112 112 111 110 109 109 108 108 109 109 109 108 108 108 108 108 108 108 109 109 110 109 109 108 106 105 104 103 101 99 98 97 96 95 94 93 92 92 91
71 72 73 73 75 80 82 82 83 85 86 87 88 89 91 92 95 97 99 101 103 104 106 107 108 109 109 110 110 110 110 110 111 111 111 111 110 110 110 110 110 110 109 109 109 109 109 108 107 107 106 106 106 106 107 107 107 107 108 107 108 108 108 109 109 110 110 109 108 106 105 103 103 102 100 99 97 96 95 94 93 93 92 92 91 91
73 74 75 74 75 79 82 84 86 89 90 93 94 95 96 97 99 100 101 103 104 104 105 106 106 106 106 106 106 107 107 107 107 107 107 107 107 107 106 106 106 106 105 105 104 104 104 104 104 104 104 104 104 105 105 106 106 107 107 108 108 108 109 109 109 109 108 107 106 104 103 102 101 100 99 98 96 95 94 92 92 91 91 90 89 88
75 76 77 77 78 81 85 87 91 93 95 97 98 98 99 100 100 100 101 101 101 101 102 102 103 103 102 103 103 103 104 104 104 104 104 104 103 103 102 102 102 101 101 101 101 101 102 102 102 102 102 103 103 104 104 105 106 106 107 107 107 107 108 107 107 106 106 105 104 103 102 101 100 99 98 97 95 93 92 91 90 89 88 87 86 85
78 79 81 82 82 85 89 91 94 96 97 98 99 99 98 98 98 98 98 98 98 99 99 99 99 99 99 99 99 99 100 100 100 100 99 99 99 99 98 98 98 98 99 99 99 100 100 100 101 101 101 102 102 103 103 104 104 105 105 105 105 105 104 104 104 104 103 103 103 102 100 99 98 97 96 94 93 91 90 89 87 86 84 83 82 81
82 84 86 88 88 89 91 93 94 96 96 96 96 95 95 95 95 95 95 95 95 96 96 96 95 95 95 95 95 95 95 95 95 95 95 95 95 95 95 95 96 96 97 97 98 98 99 99 99 100 100 100 100 101 101 102 102 102 103 102 102 102 102 102 103 102 102 101 100 99 98 96 96 95 93 92 91 89 88 86 84 82 81 80 79 78
87 89 91 92 92 92 92 92 92 92 93 93 93 92 92 92 91 90 90 91 92 92 92 92 92 92 91 91 91 91 91 91 91 92 92 92 93 93 93 94 94 95 96 96 97 97 98 98 98 98 98 99 99 99 100 100 101 101 101 101 101 101 101 101 101 100 100 99 98 97 96 94 93 92 91 89 88 87 86 84 82 80 79 78 77 75
90 92 93 93 93 92 90 90 89 89 89 90 90 89 89 89 88 86 85 87 89 89 89 89 89 88 88 88 88 88 88 88 90 90 90 91 91 92 92 93 93 93 94 94 95 96 96 96 96 97 97 98 98 98 99 99 100 100 101 100 100 100 99 99 98 97 97 96 96 95 94 92 90 89 88 86 85 84 83 81 80 79 78 76 75 74
92 93 93 92 91 90 88 86 86 87 87 88 87 87 87 87 86 85 83 82 84 86 85 85 85 85 85 85 85 86 86 86 88 89 89 90 91 91 92 92 92 93 93 93 94 94 95 95 95 95 96 96 97 97 98 98 99 99 99 99 98 98 98 97 96 96 95 95 94 93 91 90 87 85 84 83 82 81 80 79 79 78 77 75 73 73
93 92 91 89 88 88 87 85 84 84 84 84 84 84 85 85 85 84 81 79 79 81 82 82 82 82 83 83 84 85 85 85 86 88 89 90 91 92 92 93 94 94 94 94 94 95 95 95 95 96 96 96 96 97 97 97 97 97 97 97 97 97 97 96 95 95 94 93 92 90 88 86 84 82 80 79 79 78 77 77 77 77 74 72 70 70
91 89 88 88 87 86 85 84 83 82 81 81 81 81 82 82 82 82 80 77 77 78 79 79 80 80 81 81 82 84 84 84 85 86 88 89 90 91 92 93 94 94 94 94 94 94 95 95 95 96 95 95 95 95 94 94 94 95 95 95 95 95 94 94 93 92 91 90 88 86 84 83 81 80 78 76 77 77 75 75 75 74 71 68 67 66
87 87 86 86 85 84 83 81 80 80 79 79 79 79 79 80 80 80 79 77 76 76 77 77 77 78 79 80 81 83 83 83 83 84 85 85 86 87 88 89 90 91 91 92 92 92 93 93 93 93 92 92 91 91 91 91 92 92 92 91 91 91 90 90 89 88 87 86 84 83 82 81 79 77 75 74 74 74 73 72 71 70 67 65 64 64
85 85 84 83 82 81 79 78 77 77 77 78 78 77 77 77 77 77 77 76 75 75 75 76 76 77 78 78 79 80 81 81 81 81 81 82 82 83 84 85 86 86 87 87 88 88 88 89 89 89 88 88 88 88 88 89 90 89 89 88 87 87 86 86 85 84 83 83 82 82 81 79 77 75 74 73 72 71 71 70 68 66 64 62 63 62
84 83 82 80 78 77 77 76 75 74 74 75 75 75 75 75 74 74 74 75 75 74 74 75 75 76 76 77 78 78 79 79 80 79 79 80 80 80 81 82 82 83 83 83 83 83 84 84 85 85 85 86 86 86 87 87 87 87 86 85 84 84 83 82 82 81 81 81 81 81 80 78 76 74 72 70 69 68 68 67 66 63 60 60 61 61
84 83 81 80 78 78 78 77 76 74 73 72 72 72 73 74 73 73 73 73 74 74 73 74 74 74 75 76 76 77 78 78 78 78 78 78 78 78 79 79 79 80 80 80 80 80 81 82 83 84 85 85 85 85 84 84 85 84 83 82 81 81 81 80 80 79 79 80 80 79 78 77 75 73 70 68 66 65 65 66 65 62 59 57 59 59
84 84 83 83 82 82 82 82 81 79 78 77 77 76 75 75 74 74 73 73 73 74 73 73 74 74 74 74 75 75 76 76 77 76 76 76 76 77 77 77 78 78 78 78 79 79 80 81 82 83 83 82 82 82 82 82 82 81 80 79 78 78 78 79 78 78 78 78 78 78 76 75 73 71 69 66 65 64 64 64 64 62 58 56 56 56
86 85 85 85 85 86 87 87 87 86 85 83 82 81 79 78 77 76 75 75 74 74 74 73 73 73 73 73 73 74 74 74 75 75 74 75 75 75 76 76 76 77 77 77 78 78 78 79 80 80 80 80 80 80 79 79 78 78 77 77 76 76 77 77 77 77 77 77 76 75 74 73 72 70 68 65 63 62 62 62 62 60 57 54 54 53
87 87 87 87 87 88 88 89 89 89 87 86 84 82 80 79 77 76 75 75 74 73 73 73 73 73 72 72 72 72 73 73 73 73 73 73 73 73 74 74 75 75 75 75 75 76 76 77 77 78 78 78 78 77 77 77 77 76 76 76 76 75 75 75 75 75 75 74 73 73 72 71 71 70 68 65 63 61 59 59 59 59 57 54 53 52
88 88 88 88 88 87 87 88 88 88 87 85 84 83 81 79 77 76 75 75 74 74 73 73 72 72 71 71 71 71 71 71 71 71 71 71 71 72 72 73 73 73 73 73 74 74 74 75 75 75 75 76 76 76 76 77 76 76 75 74 74 73 73 73 73 73 72 72 71 71 71 70 69 69 68 65 63 60 58 56 57 57 56 52 51 50
88 87 86 86 86 86 85 85 85 85 85 84 83 82 82 80 79 78 77 76 75 74 73 72 71 71 70 70 70 70 70 70 70 70 70 70 70 70 71 71 71 72 72 72 72 72 72 73 73 74 74 75 75 76 76 76 75 74 73 72 71 70 71 71 71 71 71 70 70 69 69 68 67 67 66 65 62 58 55 54 56 57 54 49 48 48
87 86 85 85 85 84 83 81 80 80 80 80 81 81 81 81 80 79 77 76 74 73 72 72 71 71 70 70 70 70 70 70 70 69 69 68 68 69 69 69 70 70 70 70 71 71 72 72 73 73 74 74 74 74 74 73 73 72 71 70 69 69 69 70 71 71 70 70 68 68 68 67 65 64 63 63 61 57 53 49 51 56 56 48 43 45
87 86 85 85 84 83 81 80 78 78 78 78 79 80 80 80 79 78 77 76 74 73 73 72 72 71 71 70 70 70 70 70 69 69 68 68 68 68 68 69 69 70 70 70 71 71 72 72 72 72 72 72 72 71 71 71 70 70 69 69 68 68 68 68 69 70 70 69 67 66 66 65 64 63 61 60 59 58 53 46 43 49 56 53 43 40
87 86 85 85 84 83 82 81 80 80 80 79 79 78 78 77 77 76 75 75 74 73 72 72 72 71 71 71 70 70 70 70 70 70 69 69 69 69 69 69 69 70 70 70 70 71 71 72 71 71 71 71 70 70 69 69 70 70 69 69 68 68 67 67 67 67 67 67 66 64 64 63 62 61 60 58 57 56 54 50 42 40 48 54 48 40
Wind_Direction
276 277 277 278 279 280 280 280 280 280 280 281 281 282 283 283 284 284 285 285 285 285 285 285 285 285 285 286 287 287 287 288 288 289 289 289 289 289 288 288 288 288 289 289 289 290 290 290 290 290 290 291 291 292 291 291 291 292 291 291 290 289 288 287 286 285 284 283 281 280 280 279 279 279 278 276 274 272 269 267 264 264 265 266 266 266
277 277 277 278 279 279 279 279 279 279 280 281 281 282 282 283 283 284 284 284 284 285 285 285 285 285 285 286 286 286 287 288 288 289 289 289 289 288 288 288 289 289 289 289 290 290 290 290 290 291 291 291 291 291 291 291 291 291 290 289 289 288 287 286 285 284 283 281 279 278 278 278 278 277 276 274 272 270 268 266 264 264 265 266 266 265
277 277 278 278 278 279 279 279 280 280 281 282 282 282 282 283 283 284 284 284 284 285 285 285 284 285 285 286 286 287 287 288 288 289 288 288 288 288 288 288 288 289 289 289 290 290 290 290 291 291 291 291 291 291 291 291 290 289 288 288 287 286 286 285 284 282 281 279 278 277 277 276 276 276 275 273 272 270 268 266 265 265 265 266 266 265
277 277 278 278 279 279 280 281 281 282 282 282 282 282 283 283 283 283 284 284 284 284 284 284 285 285 286 287 287 288 288 289 289 289 289 288 288 288 288 288 288 288 288 289 289 290 290 290 291 291 291 291 291 291 290 289 288 288 287 287 286 286 285 284 283 281 280 278 277 276 276 275 275 274 273 273 272 271 270 268 268 267 267 267 266 266
278 278 279 279 280 281 281 282 282 282 283 283 283 283 283 283 283 284 284 284 285 285 285 286 286 286 287 287 288 288 288 288 288 288 288 288 287 287 287 287 288 288 288 288 289 289 290 290 291 291 291 291 291 290 289 288 288 287 287 287 286 285 284 284 283 281 280 279 278 277 277 276 275 274 273 272 272 272 271 270 270 269 268 268 267 267
278 279 279 280 280 281 281 282 282 283 283 283 284 284 284 284 285 285 285 286 286 286 287 287 287 287 287 288 288 288 288 288 288 288 288 287 287 287 287 287 287 288 288 289 289 290 290 291 291 291 290 290 290 290 289 288 288 288 288 287 286 285 285 284 283 282 281 280 279 279 279 278 278 277 276 275 274 273 272 272 271 270 269 268 267 267
280 280 280 281 281 282 282 283 283 284 284 284 285 285 286 286 287 287 287 287 287 288 288 288 288 288 288 288 288 288 288 288 288 288 288 287 287 287 287 287 287 288 288 289 290 290 291 291 290 290 290 290 290 289 289 289 288 288 288 287 286 285 284 283 283 282 281 281 280 280 279 279 278 278 277 277 276 275 274 273 272 271 270 269 267 266
282 282 282 283 283 283 284 284 285 286 286 286 286 287 287 287 288 288 288 288 288 288 288 288 288 288 289 289 289 289 289 288 288 288 288 287 287 287 287 288 288 288 289 290 290 290 290 290 289 289 289 289 289 289 289 288 288 287 287 286 285 284 284 283 282 282 281 280 280 279 279 278 278 277 276 275 275 275 274 273 272 272 271 270 270 268
284 284 284 284 285 285 286 286 286 287 287 287 287 287 287 287 287 287 287 288 288 288 288 288 288 288 288 289 289 289 289 288 288 288 288 288 288 288 288 288 289 289 290 290 290 290 289 289 289 289 289 289 289 288 288 288 287 286 286 285 284 284 283 283 282 282 281 280 280 279 278 278 277 277 276 275 275 275 274 274 274 273 272 272 272 271
285 285 285 286 286 286 287 287 287 288 288 287 287 287 287 287 287 287 287 287 287 288 288 287 288 288 288 289 289 289 289 288 288 288 289 289 289 289 289 289 289 289 289 289 289 289 288 288 289 289 289 288 288 287 287 287 286 286 285 285 285 285 284 284 283 283 283 282 281 281 280 279 278 278 277 277 276 276 275 275 275 275 274 274 273 273
286 287 287 287 287 287 287 287 287 287 287 287 287 286 286 286 287 287 287 288 288 288 288 287 288 288 288 289 289 289 289 289 290 290 290 289 289 289 289 289 289 289 289 289 288 288 288 288 288 288 288 287 287 287 286 286 286 286 286 286 285 285 285 285 284 284 283 283 282 281 281 280 279 279 278 277 277 276 276 275 275 275 274 274 274 274
288 288 287 287 287 287 287 286 286 286 286 286 286 286 287 287 287 287 288 288 288 288 288 288 288 288 289 290 290 290 290 290 290 290 290 290 289 289 289 289 289 288 288 288 287 287 287 287 287 287 286 286 286 286 286 286 286 286 285 285 285 285 284 284 284 283 283 283 282 282 281 281 280 279 278 277 276 275 275 274 274 273 273 273 273 272
288 288 288 287 287 287 287 287 287 287 287 288 288 288 288 288 288 288 289 289 289 289 289 289 289 289 290 291 291 291 291 291 290 290 290 289 289 289 288 288 288 287 287 287 286 286 286 286 286 286 286 285 285 285 286 286 286 286 285 285 285 285 284 284 284 284 284 283 283 283 282 282 281 280 280 279 277 276 276 275 274 274 273 272 272 272
289 289 289 289 289 289 289 289 289 290 290 290 290 290 290 290 289 290 289 289 289 289 290 290 290 290 291 291 291 291 291 290 290 290 289 289 289 288 288 288 287 287 286 286 286 286 286 286 286 286 286 286 286 286 286 286 286 286 286 286 286 285 285 285 285 285 285 285 285 284 284 284 283 282 282 281 280 279 278 276 275 274 274 273 272 272
288 289 290 290 290 290 291 291 291 292 292 292 292 292 292 291 291 291 291 290 290 290 291 291 291 291 292 291 292 291 291 291 291 290 290 289 289 288 288 288 287 287 287 287 287 287 287 287 286 286 286 286 287 287 287 287 287 287 287 287 287 287 287 287 287 287 287 286 286 286 285 285 284 283 283 282 281 280 279 277 276 275 273 272 271 270
290 290 290 291 291 291 292 293 293 293 293 293 293 293 293 293 293 293 293 293 292 292 292 292 293 293 293 293 292 291 291 291 290 290 289 289 289 288 288 288 288 288 288 288 287 287 287 287 287 287 287 287 288 288 288 288 288 288 288 289 289 289 289 289 288 288 287 287 287 286 286 286 285 285 284 283 282 281 280 278 277 275 274 273 271 270
292 292 292 292 292 293 294 294 295 295 295 295 295 294 294 294 295 295 295 295 295 294 294 294 294 294 294 293 292 291 291 290 290 289 289 289 288 288 288 288 288 288 288 288 288 288 288 288 287 288 288 289 289 289 290 290 290 290 290 290 290 289 289 289 288 288 288 288 288 288 288 287 287 286 285 284 283 282 281 280 278 277 275 274 272 271
295 295 295 295 295 296 297 297 297 297 297 298 297 297 296 296 296 296 297 297 296 295 296 295 294 294 293 293 292 291 291 290 290 289 289 289 288 288 288 288 288 288 288 288 288 288 288 288 288 289 290 290 291 290 290 290 290 290 290 290 289 289 289 289 290 290 290 290 290 290 290 289 288 287 286 285 284 283 282 280 279 278 276 275 273 272
298 299 298 297 298 298 298 299 299 300 300 300 299 298 298 298 297 297 297 297 296 295 295 295 294 293 293 292 292 291 290 289 289 289 288 288 288 288 288 288 288 289 289 289 289 290 290 290 290 291 291 291 290 290 290 290 290 290 290 290 290 291 291 291 292 292 292 292 291 291 290 289 288 287 286 285 284 283 282 281 280 278 277 276 274 273
301 301 300 299 299 300 300 301 302 301 301 301 300 299 298 298 297 297 297 296 295 295 295 294 293 292 292 291 290 289 289 289 288 288 288 289 289 289 289 290 290 290 290 290 290 290 290 290 291 291 291 290 290 290 291 291 291 291 292 292 293 293 293 293 293 293 292 292 291 291 290 289 289 288 287 286 286 285 284 283 282 280 279 278 276 275
304 305 304 303 302 302 302 302 302 301 300 299 298 298 297 297 296 296 296 296 295 295 295 294 293 293 293 292 292 291 291 291 291 291 291 291 291 291 291 291 290 290 290 290 290 290 290 290 291 291 291 291 291 292 292 292 293 293 293 294 294 293 293 293 293 292 292 292 291 291 291 290 290 290 289 289 288 287 286 285 284 282 281 280 279 278
307 306 306 304 303 302 301 302 301 300 299 298 297 297 297 297 296 296 297 297 297 297 297 296 295 295 295 294 293 293 293 292 292 292 291 291 291 290 290 290 290 290 290 290 290 291 291 292 292 292 292 292 293 293 293 293 293 293 293 293 293 293 293 293 293 293 293 293 293 292 292 292 292 291 291 290 290 289 287 286 285 284 283 282 281 280
306 305 305 304 302 301 300 300 300 300 299 299 298 298 298 298 298 298 298 298 298 298 297 296 296 296 295 294 293 293 292 292 292 292 292 292 292 292 292 292 292 292 292 292 292 292 293 293 292 292 293 293 293 293 292 292 292 292 293 293 293 293 293 294 294 294 294 294 294 294 293 293 292 292 291 291 290 289 288 287 287 286 285 285 284 283
305 304 304 303 302 302 302 302 302 302 301 301 301 301 300 300 300 300 300 299 299 298 298 297 297 297 296 295 295 294 294 294 294 294 294 294 293 293 293 293 293 293 293 293 293 293 293 292 292 292 292 292 292 292 292 292 293 293 293 294 294 294 295 295 295 295 295 295 295 294 294 294 293 293 292 292 291 291 290 290 290 289 288 287 286 285
307 306 305 304 303 302 303 305 305 305 305 304 304 303 303 303 302 302 302 301 300 300 299 298 298 297 297 296 295 294 294 294 294 294 293 293 293 292 292 292 292 292 292 292 292 292 292 291 291 292 292 292 292 292 293 293 294 294 294 295 295 295 295 295 295 295 295 295 295 294 294 294 294 294 293 293 293 293 292 292 291 290 289 288 286 285
312 311 311 311 309 307 307 307 307 307 306 306 304 304 304 303 302 301 301 300 299 298 297 296 296 296 295 294 293 293 293 292 292 292 291 291 291 291 291 291 291 291 291 291 291 291 291 291 292 292 293 293 293 294 294 294 295 295 295 295 295 295 295 295 295 295 295 295 294 294 294 294 294 294 294 293 293 293 292 291 291 290 289 287 286 285
317 316 316 315 313 312 312 311 309 308 306 305 303 302 302 301 300 299 299 298 297 296 295 294 294 293 293 293 292 292 292 292 291 291 291 291 291 290 291 291 291 291 291 291 292 292 292 292 293 294 294 294 294 294 294 295 295 295 295 295 295 295 295 295 295 295 295 295 295 295 295 295 294 294 293 293 293 293 292 292 291 290 289 288 287 286
318 317 316 314 312 311 311 310 307 306 305 303 301 300 299 299 298 297 297 296 295 294 294 293 293 292 292 292 292 292 292 292 291 291 291 291 291 291 292 292 292 292 293 293 293 293 293 294 294 294 294 294 294 294 294 294 295 295 295 295 295 295 295 295 295 295 295 295 295 295 295 294 294 294 294 294 294 294 293 293 292 291 290 289 288 287
316 314 313 312 309 308 308 307 305 304 303 301 300 299 298 297 297 296 295 295 294 294 294 293 293 293 293 293 293 293 293 292 292 292 292 293 293 293 293 293 293 294 294 294 294 294 294 294 294 294 294 294 295 295 295 295 295 295 295 295 295 296 296 296 296 296 296 296 295 295 295 295 295 295 295 295 295 295 294 293 292 292 291 290 288 287
313 312 311 310 308 306 306 306 304 303 302 301 300 299 298 297 297 296 296 295 295 295 295 294 294 294 294 294 294 294 294 293 293 293 293 293 293 293 293 293 293 294 294 294 294 294 294 294 294 295 295 295 295 295 295 295 296 296 296 297 297 297 297 297 296 296 295 295 296 296 296 296 296 296 296 296 296 295 295 294 293 292 291 290 289 287
313 311 310 310 309 307 306 306 305 304 303 302 301 300 300 299 298 298 297 297 296 296 296 295 295 295 295 295 295 294 294 294 294 294 294 294 294 294 294 294 294 294 294 294 294 295 295 295 295 295 295 296 296 296 296 297 297 297 297 298 297 297 297 296 296 296 296 296 297 298 298 297 297 297 297 297 296 296 295 294 293 292 291 289 289 288
314 313 311 311 310 308 307 307 306 305 304 303 302 302 301 301 300 299 298 298 298 297 297 296 296 296 296 296 295 295 295 295 295 295 295 295 295 295 295 295 295 295 295 295 295 295 295 295 296 296 296 297 297 297 297 297 297 297 297 296 296 296 296 296 296 297 297 298 298 298 298 298 298 298 297 297 296 296 295 294 292 291 290 290 289 288
315 314 313 312 311 310 308 307 306 305 304 304 303 303 302 302 301 300 300 299 299 298 298 297 297 297 296 296 296 296 296 296 296 296 296 296 296 296 296 296 296 296 296 296 295 295 296 296 296 297 297 297 297 296 296 296 296 295 295 295 295 295 296 297 297 298 298 298 298 298 298 298 298 298 297 297 296 296 294 293 292 291 291 290 289 288
316 315 314 312 311 310 309 308 307 306 305 304 304 304 303 302 302 301 301 300 300 299 299 298 298 298 297 297 297 297 296 296 296 296 296 296 296 296 296 296 296 295 295 295 295 296 296 296 296 296 296 296 295 295 295 295 295 295 295 296 296 297 298 298 298 298 298 298 298 298 298 299 298 298 297 297 297 296 295 294 293 293 292 291 290 289
316 315 314 313 312 311 310 309 308 307 306 305 305 304 303 302 302 302 302 301 300 300 300 300 300 299 299 299 299 299 298 298 298 298 297 297 297 296 296 296 296 296 296 296 296 295 296 296 296 296 296 295 295 295 295 296 296 297 297 298 298 298 298 298 298 298 298 298 299 299 299 299 298 298 298 298 297 296 295 295 295 294 293 292 291 290
316 315 314 313 313 312 311 310 309 308 307 306 306 306 305 304 304 304 304 304 303 302 302 302 302 302 301 301 301 300 300 299 299 298 298 298 297 297 297 296 296 296 296 296 296 296 296 296 296 296 296 296 296 296 297 297 298 298 298 298 298 298 298 298 298 299 299 300 300 300 299 299 299 299 299 298 297 297 296 297 296 295 294 294 293 292
317 316 315 315 314 313 312 312 311 311 310 309 309 309 308 308 307 307 306 306 304 304 304 303 303 302 302 302 301 300 300 300 299 299 299 299 298 298 298 298 297 297 297 297 297 297 297 297 297 297 297 297 298 298 298 298 298 299 299 299 299 299 299 300 301 301 301 301 300 300 300 300 300 299 299 298 297 297 298 298 297 296 295 295 294 292
318 317 316 316 315 315 315 315 314 313 313 312 311 311 310 309 308 308 307 307 305 304 304 303 303 303 302 302 301 301 301 300 300 300 300 300 300 300 300 300 299 299 299 299 299 299 299 299 299 299 299 299 299 300 300 300 300 300 300 300 301 301 302 302 302 302 301 301 301 301 301 300 300 299 299 299 299 299 299 298 297 296 295 294 294 292
319 319 318 318 318 318 318 317 317 316 314 313 312 311 310 310 309 309 309 308 307 306 305 305 304 304 303 303 302 301 301 301 301 300 300 300 300 300 300 300 300 300 300 300 300 300 300 300 300 300 300 300 300 300 300 300 300 301 301 302 302 302 302 302 302 301 301 301 301 301 301 300 300 300 300 300 300 300 299 298 297 296 295 295 293 291
321 321 321 321 321 320 320 319 318 318 317 316 315 314 313 312 312 311 311 311 309 308 307 306 305 305 304 303 303 302 302 302 302 301 300 300 300 300 300 299 300 300 300 300 300 300 300 300 300 300 300 300 300 300 301 301 301 301 302 302 302 302 302 302 301 301 302 302 302 301 301 300 300 301 302 302 301 300 299 298 297 296 296 295 293 291
324 324 323 323 323 322 321 321 321 321 320 319 318 318 317 316 315 315 314 313 312 310 309 308 307 307 306 305 305 304 304 304 303 302 302 301 301 300 300 300 300 300 299 299 299 300 300 300 300 300 300 301 301 301 301 301 301 302 302 302 302 302 302 302 302 302 303 303 302 302 301 302 302 303 302 302 301 300 299 298 297 297 297 296 294 292
326 326 325 325 325 324 324 324 324 324 324 323 322 321 320 319 318 318 317 315 314 313 313 311 310 310 309 308 308 307 306 306 306 305 305 304 304 303 302 302 301 301 301 301 301 301 301 301 301 301 302 302 302 303 303 303 303 303 303 303 303 303 303 303 304 304 304 304 303 303 303 303 304 303 303 302 302 301 301 300 299 298 298 297 294 292
329 328 328 328 329 329 329 328 328 328 327 326 325 324 323 322 322 321 320 319 317 317 316 315 314 313 312 312 311 310 310 309 309 308 308 307 306 306 305 304 304 303 303 303 303 303 303 303 303 303 303 304 304 304 304 304 304 304 304 304 305 305 305 305 305 305 305 304 304 304 304 305 304 304 304 303 303 303 303 302 301 300 299 297 294 293
332 332 332 333 333 333 333 332 332 332 332 331 330 329 328 327 326 324 323 322 321 320 319 318 317 317 316 315 314 313 312 311 311 311 310 310 309 308 308 307 306 306 306 305 305 305 305 304 304 304 305 305 305 305 305 305 305 305 306 306 307 307 307 307 307 306 306 305 305 305 305 305 305 305 305 305 305 305 305 303 302 300 299 297 295 293
335 336 336 336 337 337 336 336 335 335 335 334 332 332 331 330 329 328 327 325 324 323 322 321 320 319 318 317 316 315 314 314 313 313 312 312 311 310 309 308 308 307 307 307 306 306 306 306 306 306 307 307 306 306 306 306 307 307 308 309 309 309 308 308 308 307 306 306 306 306 306 306 306 306 307 307 307 307 306 304 302 301 300 298 295 293
338 338 338 338 339 339 338 338 337 336 335 334 333 333 332 331 330 330 328 327 326 325 324 323 322 322 320 319 318 317 316 315 315 314 314 313 312 311 310 309 309 308 308 308 308 308 308 308 308 308 308 308 308 308 308 309 309 310 310 311 311 310 309 308 307 307 306 307 307 308 308 308 308 308 308 308 308 308 306 305 303 301 300 298 296 294
340 340 340 340 340 340 339 338 337 336 335 334 334 333 333 333 332 332 331 330 329 328 327 326 325 324 322 321 320 319 318 317 317 316 315 315 314 313 312 312 311 311 311 311 311 311 310 310 310 310 310 310 311 311 311 312 312 312 312 312 311 310 310 309 308 308 308 309 309 309 309 309 309 309 309 309 309 308 307 306 303 300 299 298 296 294
341 341 341 340 340 340 340 339 338 336 336 335 335 334 334 335 335 334 333 332 331 330 329 328 326 326 325 324 323 322 321 320 320 319 319 318 317 316 315 315 314 314 313 313 313 312 312 312 312 312 313 313 313 313 313 313 313 312 312 312 312 311 311 310 310 311 311 311 311 311 310 310 310 309 309 308 308 308 307 307 304 300 298 298 296 294
341 341 341 341 341 340 340 339 338 337 336 336 336 336 336 336 336 335 334 333 332 332 331 330 329 328 327 326 326 325 324 324 323 322 322 321 320 318 317 317 316 316 316 315 315 315 315 315 315 315 314 314 314 314 314 314 313 313 313 313 313 313 313 313 313 313 312 312 312 311 310 310 310 309 309 308 308 307 307 307 306 302 299 298 297 295
342 342 342 341 341 341 340 340 339 339 338 338 338 338 338 337 336 336 335 334 334 334 333 332 331 330 330 329 328 328 327 326 326 325 324 324 322 321 320 320 320 319 319 319 318 318 317 317 316 316 316 316 315 315 315 315 315 315 315 315 315 315 315 315 314 313 313 312 312 311 311 310 310 310 309 309 309 308 307 307 306 303 300 299 298 296
342 342 342 342 342 342 342 342 342 342 342 341 341 340 339 338 337 337 336 336 336 335 335 334 333 332 332 331 331 330 329 329 328 328 327 326 326 325 324 323 322 322 321 321 320 320 319 319 318 318 318 318 317 317 317 317 317 317 317 317 317 317 317 316 314 314 313 313 312 312 311 311 311 310 310 310 309 309 308 307 306 304 300 299 299 297
Height
10656 10653 10648 10646 10646 10642 10639 10638 10635 10633 10631 10629 10626 10624 10621 10619 10616 10609 10606 10605 10600 10598 10595 10589 10585 10580 10576 10574 10568 10562 10559 10557 10555 10550 10546 10542 10539 10536 10531 10527 10523 10519 10514 10509 10505 10502 10498 10495 10490 10486 10482 10478 10474 10470 10466 10462 10458 10454 10451 10448 10445 10441 10436 10433 10429 10426 10423 10421 10419 10417 10414 10412 10409 10407 10406 10405 10403 10402 10402 10402 10402 10401 10401 10400 10400 10399
10649 10646 10641 10639 10638 10634 10632 10629 10626 10624 10622 10621 10618 10616 10613 10609 10607 10603 10599 10595 10591 10589 10585 10579 10574 10569 10567 10566 10560 10554 10550 10547 10545 10541 10537 10533 10529 10525 10521 10516 10512 10508 10503 10498 10494 10491 10487 10483 10479 10476 10472 10468 10464 10459 10455 10451 10447 10443 10440 10437 10434 10429 10425 10422 10419 10417 10414 10412 10410 10409 10406 10404 10402 10399 10398 10396 10394 10393 10394 10393 10393 10392 10391 10390 10390 10389
10641 10638 10634 10632 10629 10626 10623 10620 10618 10616 10614 10612 10608 10606 10604 10599 10597 10595 10590 10585 10582 10579 10575 10569 10563 10558 10557 10556 10550 10545 10542 10538 10536 10532 10527 10523 10519 10515 10510 10506 10502 10497 10492 10488 10483 10479 10476 10472 10468 10465 10461 10457 10453 10449 10445 10440 10436 10432 10429 10427 10423 10419 10416 10413 10410 10408 10405 10403 10401 10400 10399 10397 10395 10391 10389 10388 10386 10384 10385 10384 10383 10382 10381 10380 10379 10378
10634 10631 10628 10624 10621 10618 10615 10612 10609 10608 10605 10602 10598 10596 10594 10590 10587 10585 10581 10576 10573 10569 10565 10559 10553 10549 10548 10546 10541 10536 10533 10530 10526 10522 10517 10513 10508 10504 10499 10495 10491 10487 10482 10477 10473 10469 10466 10461 10457 10453 10449 10446 10443 10438 10434 10429 10424 10421 10418 10416 10413 10410 10406 10403 10401 10399 10397 10395 10393 10391 10390 10389 10388 10385 10381 10379 10377 10375 10375 10375 10373 10372 10371 10370 10369 10367
10627 10624 10621 10617 10613 10610 10607 10603 10601 10599 10597 10593 10588 10586 10584 10581 10577 10575 10572 10567 10563 10559 10554 10549 10543 10540 10539 10537 10532 10528 10524 10521 10516 10512 10507 10502 10498 10493 10489 10484 10480 10476 10471 10467 10463 10459 10455 10451 10446 10442 10438 10435 10432 10427 10422 10418 10414 10411 10408 10406 10403 10400 10396 10393 10391 10389 10387 10385 10383 10382 10381 10379 10378 10377 10373 10371 10369 10366 10365 10365 10363 10362 10361 10360 10359 10357
10620 10617 10614 10610 10606 10603 10599 10595 10592 10590 10589 10584 10579 10575 10574 10571 10567 10564 10561 10558 10555 10550 10545 10538 10532 10530 10529 10527 10524 10519 10514 10511 10506 10502 10497 10492 10487 10482 10478 10473 10468 10464 10460 10456 10452 10448 10444 10440 10435 10431 10427 10424 10421 10416 10411 10407 10404 10401 10398 10396 10393 10389 10386 10383 10380 10378 10376 10374 10373 10372 10371 10369 10368 10366 10363 10361 10360 10358 10355 10353 10352 10350 10348 10348 10348 10346
10612 10609 10606 10603 10599 10595 10592 10588 10584 10582 10580 10577 10571 10567 10565 10561 10558 10555 10550 10547 10545 10542 10537 10528 10519 10518 10518 10516 10514 10510 10505 10500 10495 10490 10486 10481 10476 10471 10466 10462 10457 10452 10448 10444 10440 10436 10432 10428 10423 10420 10417 10413 10409 10405 10401 10397 10394 10391 10389 10385 10382 10379 10376 10373 10369 10367 10365 10364 10363 10361 10360 10359 10357 10356 10353 10349 10347 10345 10343 10341 10339 10337 10334 10333 10333 10333
10605 10601 10598 10595 10591 10587 10584 10581 10577 10574 10572 10569 10564 10560 10556 10552 10549 10545 10540 10537 10534 10532 10528 10517 10509 10506 10506 10504 10502 10499 10495 10490 10484 10479 10474 10470 10466 10461 10456 10451 10446 10441 10437 10433 10429 10425 10420 10416 10412 10409 10407 10403 10398 10394 10391 10388 10385 10381 10378 10375 10371 10368 10365 10362 10359 10356 10354 10353 10352 10350 10349 10347 10345 10344 10342 10339 10335 10332 10329 10328 10325 10323 10320 10317 10316 10316
10598 10594 10591 10587 10583 10580 10576 10573 10569 10566 10563 10559 10556 10551 10547 10543 10540 10535 10531 10527 10522 10522 10518 10507 10499 10496 10494 10493 10490 10487 10484 10478 10474 10469 10464 10460 10455 10449 10444 10439 10435 10430 10426 10422 10417 10413 10409 10404 10401 10399 10396 10392 10387 10384 10381 10378 10374 10370 10367 10363 10360 10357 10354 10351 10348 10345 10343 10341 10340 10338 10336 10334 10331 10329 10328 10326 10323 10319 10316 10314 10311 10308 10306 10302 10299 10297
10592 10587 10583 10580 10576 10572 10568 10564 10561 10557 10553 10550 10546 10542 10538 10534 10530 10525 10522 10517 10512 10511 10507 10498 10491 10485 10483 10484 10480 10475 10472 10467 10462 10459 10454 10449 10444 10438 10433 10428 10424 10419 10414 10411 10407 10402 10398 10394 10390 10388 10385 10381 10376 10373 10369 10366 10362 10359 10355 10352 10348 10345 10342 10339 10335 10332 10330 10327 10325 10323 10321 10319 10317 10315 10313 10311 10308 10305 10302 10299 10296 10292 10289 10286 10282 10279
10584 10580 10576 10572 10569 10564 10560 10556 10552 10548 10544 10540 10536 10532 10528 10524 10520 10517 10512 10507 10502 10500 10496 10488 10482 10476 10472 10474 10471 10464 10460 10456 10451 10447 10442 10437 10432 10427 10423 10417 10412 10408 10404 10400 10396 10392 10388 10383 10380 10377 10373 10369 10365 10362 10358 10354 10351 10347 10343 10340 10336 10332 10328 10325 10321 10318 10315 10312 10308 10306 10304 10303 10301 10299 10298 10296 10292 10289 10286 10283 10279 10276 10272 10269 10265 10261
10576 10572 10568 10564 10560 10556 10552 10548 10544 10540 10536 10531 10527 10522 10518 10515 10510 10508 10504 10497 10492 10489 10484 10479 10474 10468 10464 10463 10459 10454 10450 10445 10441 10436 10431 10426 10421 10416 10411 10406 10402 10397 10394 10390 10386 10382 10378 10374 10370 10366 10362 10358 10354 10350 10346 10342 10338 10335 10331 10327 10323 10318 10314 10310 10307 10303 10300 10297 10293 10291 10288 10286 10284 10282 10281 10279 10277 10274 10271 10267 10263 10260 10257 10253 10248 10244
10567 10563 10560 10556 10551 10547 10543 10539 10534 10530 10527 10522 10517 10511 10508 10505 10500 10499 10496 10488 10483 10479 10473 10469 10463 10459 10457 10452 10447 10443 10439 10434 10430 10425 10420 10415 10410 10405 10400 10396 10392 10388 10384 10380 10376 10372 10368 10364 10359 10354 10349 10345 10341 10338 10333 10329 10325 10321 10317 10313 10308 10304 10300 10296 10293 10289 10285 10282 10278 10275 10272 10269 10266 10264 10261 10260 10258 10256 10253 10250 10246 10242 10239 10236 10231 10226
10559 10553 10549 10545 10541 10536 10532 10529 10525 10520 10517 10513 10508 10501 10498 10493 10489 10490 10487 10480 10475 10469 10464 10459 10453 10450 10448 10442 10436 10432 10426 10422 10418 10414 10409 10404 10399 10395 10390 10386 10381 10377 10373 10369 10365 10360 10356 10352 10347 10341 10336 10332 10328 10324 10320 10315 10311 10307 10302 10297 10293 10289 10285 10281 10277 10274 10270 10265 10261 10257 10254 10251 10248 10244 10241 10238 10236 10234 10231 10229 10226 10222 10218 10215 10211 10207
10554 10546 10540 10536 10531 10527 10523 10520 10516 10512 10508 10505 10499 10493 10489 10482 10476 10477 10476 10471 10466 10460 10455 10449 10443 10440 10438 10433 10428 10422 10415 10410 10407 10402 10398 10393 10389 10384 10379 10374 10369 10365 10361 10357 10352 10347 10343 10339 10332 10327 10322 10318 10314 10310 10306 10301 10296 10291 10286 10281 10277 10273 10268 10264 10260 10256 10252 10248 10243 10239 10235 10232 10228 10224 10220 10216 10213 10210 10207 10204 10202 10199 10195 10191 10188 10185
10550 10541 10533 10528 10523 10519 10516 10512 10508 10504 10499 10497 10492 10484 10480 10474 10466 10464 10463 10460 10455 10450 10447 10441 10433 10430 10426 10422 10418 10412 10406 10401 10396 10392 10387 10381 10377 10372 10366 10362 10357 10352 10348 10344 10339 10334 10329 10324 10318 10312 10307 10303 10300 10296 10290 10285 10280 10275 10269 10265 10260 10256 10251 10246 10242 10238 10233 10229 10225 10220 10216 10211 10207 10203 10198 10193 10189 10185 10181 10179 10176 10173 10169 10166 10163 10161
10545 10537 10526 10520 10516 10512 10509 10505 10500 10495 10490 10487 10483 10476 10470 10465 10458 10453 10451 10448 10442 10439 10438 10433 10426 10421 10416 10412 10408 10401 10396 10392 10386 10381 10376 10371 10366 10360 10355 10350 10345 10340 10335 10330 10325 10319 10314 10308 10303 10298 10293 10290 10285 10280 10274 10268 10263 10257 10252 10249 10244 10238 10233 10228 10223 10219 10214 10210 10205 10200 10195 10190 10185 10180 10175 10170 10165 10161 10157 10153 10150 10147 10144 10141 10138 10136
10537 10534 10521 10511 10508 10504 10500 10497 10492 10486 10481 10477 10472 10466 10460 10456 10450 10444 10441 10439 10433 10428 10428 10424 10419 10414 10407 10401 10397 10391 10385 10380 10374 10369 10365 10359 10354 10348 10343 10338 10332 10327 10322 10317 10311 10305 10300 10294 10288 10284 10280 10275 10270 10264 10258 10252 10246 10241 10236 10232 10227 10221 10215 10209 10204 10199 10193 10189 10184 10179 10173 10168 10163 10158 10153 10148 10143 10139 10135 10130 10127 10123 10120 10117 10114 10112
10528 10529 10519 10505 10500 10496 10492 10489 10484 10478 10473 10467 10462 10457 10451 10447 10443 10437 10433 10429 10423 10419 10418 10415 10410 10404 10398 10391 10386 10380 10374 10369 10363 10357 10352 10347 10342 10336 10330 10325 10319 10314 10309 10303 10297 10291 10284 10278 10274 10270 10265 10259 10253 10247 10242 10236 10230 10224 10219 10214 10208 10202 10196 10190 10184 10178 10172 10167 10162 10157 10152 10147 10142 10137 10132 10127 10122 10117 10113 10109 10105 10101 10097 10094 10090 10088
10518 10519 10514 10502 10494 10490 10485 10483 10479 10472 10466 10460 10454 10449 10444 10439 10434 10429 10424 10418 10412 10409 10406 10403 10400 10394 10388 10381 10374 10368 10362 10357 10351 10345 10339 10334 10329 10323 10317 10311 10305 10300 10294 10288 10282 10276 10269 10264 10259 10255 10249 10242 10237 10231 10225 10219 10212 10206 10200 10194 10188 10182 10176 10169 10163 10158 10153 10148 10143 10137 10132 10126 10120 10115 10109 10104 10099 10095 10091 10086 10082 10079 10075 10072 10068 10066
10511 10509 10506 10498 10489 10483 10479 10477 10473 10467 10460 10454 10447 10441 10436 10431 10425 10420 10416 10408 10400 10396 10392 10388 10387 10384 10376 10368 10360 10354 10348 10343 10337 10331 10326 10321 10315 10309 10303 10298 10292 10286 10280 10274 10268 10261 10255 10250 10246 10239 10231 10225 10220 10214 10207 10200 10193 10186 10179 10174 10168 10162 10157 10151 10144 10139 10133 10128 10122 10116 10110 10104 10099 10092 10087 10082 10077 10073 10069 10064 10060 10057 10054 10051 10047 10044
10505 10502 10499 10493 10485 10477 10472 10469 10465 10459 10453 10446 10439 10433 10427 10422 10415 10410 10407 10400 10390 10384 10378 10371 10371 10372 10365 10354 10346 10340 10333 10328 10323 10317 10312 10307 10301 10296 10290 10284 10278 10272 10265 10259 10253 10246 10240 10236 10229 10221 10214 10208 10201 10194 10187 10180 10173 10166 10160 10155 10149 10143 10138 10132 10126 10119 10113 10107 10101 10095 10089 10084 10078 10073 10067 10062 10057 10052 10048 10044 10040 10036 10033 10031 10027 10024
10499 10496 10493 10488 10480 10472 10466 10463 10458 10451 10444 10437 10430 10424 10418 10412 10405 10399 10395 10391 10383 10375 10366 10357 10356 10358 10352 10342 10333 10327 10320 10314 10308 10302 10297 10291 10286 10279 10273 10267 10261 10255 10248 10242 10236 10229 10224 10218 10210 10202 10196 10189 10183 10176 10169 10162 10155 10149 10142 10136 10130 10124 10118 10112 10106 10099 10093 10087 10081 10075 10070 10064 10059 10054 10048 10043 10038 10033 10029 10024 10020 10016 10013 10010 10006 10003
10492 10488 10486 10483 10475 10465 10458 10454 10449 10442 10435 10428 10420 10414 10408 10401 10395 10388 10382 10377 10372 10366 10355 10345 10342 10342 10337 10328 10320 10313 10306 10300 10293 10286 10280 10274 10268 10261 10255 10248 10242 10237 10230 10223 10217 10211 10205 10198 10190 10184 10178 10172 10165 10158 10151 10144 10137 10130 10124 10117 10111 10104 10098 10092 10085 10079 10073 10067 10061 10055 10050 10045 10039 10034 10028 10023 10018 10013 10009 10004 10000 9996 9992 9989 9986 9982
10484 10479 10476 10475 10470 10463 10455 10448 10441 10434 10426 10417 10409 10402 10397 10391 10384 10377 10370 10363 10358 10353 10343 10333 10328 10325 10319 10313 10306 10299 10292 10286 10279 10272 10265 10259 10252 10245 10238 10231 10225 10220 10213 10205 10199 10193 10187 10179 10172 10167 10161 10155 10147 10140 10133 10125 10118 10112 10105 10098 10092 10086 10080 10073 10067 10062 10056 10049 10044 10038 10032 10027 10021 10015 10009 10004 9999 9995 9990 9986 9982 9978 9974 9970 9966 9962
10477 10469 10464 10460 10456 10453 10449 10443 10435 10429 10422 10412 10401 10391 10386 10380 10373 10365 10358 10350 10343 10339 10332 10321 10314 10310 10303 10297 10291 10284 10278 10272 10266 10259 10251 10244 10238 10230 10223 10217 10211 10205 10197 10190 10184 10178 10170 10162 10155 10150 10143 10136 10129 10122 10115 10107 10100 10094 10087 10081 10075 10069 10063 10057 10051 10045 10039 10033 10028 10022 10017 10011 10005 9999 9993 9988 9984 9979 9974 9969 9965 9960 9955 9950 9947 9943
10470 10462 10455 10448 10440 10435 10434 10430 10421 10416 10412 10404 10394 10383 10375 10369 10362 10353 10346 10338 10330 10324 10319 10310 10300 10294 10288 10282 10275 10269 10263 10257 10250 10243 10235 10228 10222 10214 10207 10202 10196 10189 10181 10175 10169 10161 10152 10145 10139 10133 10126 10119 10112 10105 10098 10092 10085 10079 10073 10066 10059 10053 10048 10042 10036 10030 10024 10018 10012 10006 10001 9995 9989 9983 9978 9973 9968 9962 9957 9952 9946 9941 9936 9931 9927 9924
10463 10455 10448 10441 10430 10421 10420 10417 10408 10401 10397 10391 10384 10375 10366 10358 10351 10342 10334 10326 10318 10310 10304 10297 10287 10279 10273 10266 10260 10254 10247 10240 10233 10225 10218 10211 10204 10197 10190 10184 10178 10170 10164 10158 10151 10142 10134 10128 10123 10116 10110 10103 10097 10090 10084 10077 10071 10064 10059 10052 10046 10039 10033 10027 10021 10014 10008 10001 9995 9990 9984 9978 9972 9967 9961 9956 9951 9945 9940 9934 9928 9923 9918 9913 9909 9905
10456 10449 10443 10436 10424 10411 10407 10404 10396 10389 10383 10376 10370 10363 10355 10347 10339 10330 10321 10312 10304 10296 10289 10281 10272 10263 10257 10251 10244 10237 10230 10222 10215 10207 10200 10194 10187 10180 10174 10167 10159 10153 10147 10141 10133 10124 10118 10112 10106 10100 10094 10088 10081 10075 10068 10061 10055 10049 10043 10037 10030 10024 10017 10010 10003 9996 9990 9984 9979 9974 9968 9962 9956 9950 9944 9939 9934 9928 9923 9917 9911 9906 9900 9895 9891 9887
10449 10442 10436 10431 10421 10406 10397 10392 10384 10376 10369 10361 10355 10349 10342 10335 10326 10317 10308 10299 10290 10282 10273 10265 10257 10249 10243 10236 10228 10220 10213 10206 10198 10191 10184 10178 10171 10165 10159 10152 10145 10138 10132 10126 10118 10109 10103 10096 10090 10084 10078 10072 10066 10059 10052 10045 10038 10032 10025 10019 10012 10005 9998 9992 9986 9979 9973 9968 9963 9957 9952 9946 9939 9933 9927 9922 9917 9912 9906 9900 9895 9889 9884 9879 9874 9869
10440 10433 10426 10421 10414 10400 10389 10381 10371 10362 10354 10346 10339 10333 10326 10319 10311 10302 10293 10284 10276 10267 10258 10249 10241 10234 10228 10221 10212 10204 10197 10190 10183 10175 10169 10162 10155 10149 10144 10136 10129 10123 10117 10110 10102 10095 10088 10081 10075 10069 10063 10057 10051 10044 10037 10029 10022 10015 10008 10002 9996 9989 9983 9976 9970 9964 9958 9951 9946 9940 9935 9929 9923 9916 9910 9905 9901 9895 9890 9885 9879 9874 9869 9864 9859 9854
10430 10423 10414 10409 10403 10391 10379 10371 10360 10350 10341 10331 10323 10318 10310 10302 10294 10286 10277 10269 10261 10252 10243 10235 10227 10220 10213 10205 10197 10190 10182 10175 10168 10161 10154 10147 10140 10134 10128 10121 10115 10108 10101 10095 10088 10081 10074 10068 10061 10056 10049 10042 10036 10029 10022 10015 10008 10001 9995 9989 9982 9976 9969 9962 9956 9949 9943 9936 9930 9925 9919 9913 9908 9902 9895 9889 9885 9880 9874 9869 9864 9858 9854 9849 9844 9839
10418 10410 10402 10396 10391 10381 10369 10360 10349 10337 10329 10319 10310 10303 10295 10287 10279 10271 10262 10254 10245 10237 10229 10222 10215 10207 10200 10191 10184 10176 10168 10160 10154 10147 10141 10134 10126 10120 10114 10107 10101 10094 10087 10081 10075 10067 10061 10054 10048 10042 10036 10029 10023 10016 10009 10003 9997 9990 9984 9977 9971 9963 9956 9949 9942 9935 9929 9922 9916 9911 9905 9900 9894 9887 9881 9875 9870 9864 9858 9853 9849 9844 9839 9835 9829 9824
10405 10398 10389 10381 10376 10369 10359 10349 10338 10326 10315 10306 10298 10290 10282 10273 10265 10258 10249 10240 10231 10222 10213 10207 10201 10194 10186 10179 10171 10164 10157 10148 10141 10135 10128 10122 10115 10108 10102 10095 10088 10081 10074 10068 10062 10055 10048 10042 10036 10031 10024 10018 10012 10005 9998 9991 9985 9978 9970 9963 9957 9949 9942 9936 9928 9922 9916 9909 9902 9896 9891 9886 9879 9872 9867 9861 9854 9848 9842 9837 9833 9829 9823 9819 9814 9810
10395 10387 10377 10368 10361 10355 10345 10335 10326 10316 10303 10293 10286 10278 10270 10261 10254 10247 10239 10228 10217 10209 10201 10193 10185 10178 10171 10164 10157 10150 10143 10135 10127 10121 10115 10108 10101 10094 10088 10082 10076 10069 10062 10055 10049 10042 10036 10030 10025 10018 10012 10005 9999 9992 9985 9977 9969 9962 9955 9948 9942 9935 9929 9922 9916 9909 9902 9895 9888 9881 9876 9871 9864 9857 9851 9845 9839 9832 9826 9822 9817 9812 9808 9803 9799 9796
10385 10375 10366 10356 10347 10340 10332 10321 10311 10302 10292 10281 10273 10265 10255 10247 10240 10235 10228 10216 10202 10194 10187 10179 10171 10164 10157 10150 10143 10136 10130 10123 10114 10107 10102 10095 10088 10081 10075 10069 10064 10057 10050 10044 10038 10031 10024 10018 10012 10006 9999 9991 9985 9978 9971 9963 9955 9948 9941 9934 9928 9922 9915 9909 9902 9895 9887 9879 9872 9866 9860 9854 9850 9844 9837 9831 9825 9818 9812 9808 9803 9796 9792 9789 9785 9782
10373 10363 10354 10344 10334 10325 10319 10310 10299 10288 10277 10266 10258 10249 10239 10231 10224 10219 10217 10209 10194 10183 10176 10168 10161 10154 10147 10139 10132 10124 10118 10112 10103 10095 10089 10083 10075 10068 10062 10055 10050 10044 10037 10032 10025 10018 10012 10005 9999 9992 9985 9978 9971 9964 9957 9949 9941 9934 9927 9920 9914 9907 9899 9892 9885 9878 9871 9863 9856 9850 9845 9839 9835 9831 9825 9818 9812 9805 9800 9795 9789 9783 9779 9777 9773 9768
10361 10351 10341 10332 10322 10311 10303 10296 10287 10278 10266 10255 10245 10236 10226 10218 10210 10203 10201 10198 10187 10175 10167 10159 10151 10144 10136 10128 10121 10112 10106 10101 10092 10083 10076 10069 10061 10054 10047 10039 10032 10026 10021 10015 10009 10002 9995 9989 9982 9975 9969 9962 9955 9948 9941 9934 9926 9919 9912 9904 9897 9890 9882 9875 9868 9862 9855 9848 9842 9836 9831 9826 9821 9817 9812 9806 9799 9793 9788 9783 9776 9770 9767 9766 9762 9756
10349 10339 10328 10318 10308 10299 10290 10280 10271 10263 10255 10244 10235 10226 10215 10206 10198 10190 10185 10182 10174 10164 10156 10147 10139 10131 10124 10116 10108 10100 10093 10088 10082 10072 10064 10057 10049 10041 10034 10026 10018 10011 10005 9998 9993 9986 9979 9972 9966 9959 9953 9947 9941 9935 9928 9920 9913 9905 9898 9891 9884 9876 9870 9863 9855 9849 9842 9836 9830 9823 9818 9813 9808 9803 9799 9794 9787 9780 9776 9772 9765 9759 9756 9754 9750 9745
10338 10328 10318 10307 10297 10287 10278 10269 10259 10249 10240 10230 10221 10212 10202 10193 10184 10176 10170 10166 10160 10151 10143 10135 10127 10119 10112 10104 10096 10087 10080 10075 10070 10062 10054 10047 10040 10031 10023 10016 10008 10001 9994 9986 9980 9973 9967 9960 9954 9947 9941 9936 9929 9923 9916 9909 9901 9894 9887 9881 9873 9866 9859 9851 9844 9837 9830 9823 9817 9811 9804 9799 9795 9791 9786 9782 9776 9769 9764 9760 9754 9748 9745 9742 9738 9733
10330 10319 10308 10298 10289 10278 10269 10260 10250 10239 10228 10217 10207 10198 10189 10182 10174 10166 10157 10150 10145 10139 10130 10123 10116 10108 10100 10093 10085 10077 10069 10062 10057 10051 10044 10037 10030 10022 10014 10007 10000 9992 9985 9978 9971 9964 9957 9950 9943 9936 9931 9925 9919 9912 9905 9897 9889 9882 9876 9869 9862 9855 9847 9840 9833 9825 9818 9811 9804 9798 9791 9786 9782 9778 9774 9769 9765 9759 9752 9747 9742 9738 9735 9731 9725 9720
10320 10310 10299 10290 10281 10270 10260 10251 10243 10234 10223 10211 10200 10190 10180 10172 10166 10159 10149 10139 10132 10127 10119 10111 10103 10096 10088 10080 10073 10065 10058 10050 10043 10038 10032 10025 10018 10011 10003 9996 9988 9981 9974 9967 9960 9954 9946 9938 9931 9923 9917 9912 9905 9899 9892 9884 9876 9869 9863 9857 9850 9842 9834 9827 9820 9813 9806 9799 9791 9784 9778 9773 9769 9765 9762 9757 9753 9748 9741 9735 9730 9727 9725 9721 9713 9709
10307 10297 10287 10278 10269 10260 10249 10240 10232 10225 10216 10205 10195 10186 10176 10166 10158 10150 10142 10132 10123 10116 10109 10101 10093 10085 10078 10069 10061 10052 10045 10038 10030 10024 10019 10012 10005 9998 9991 9983 9976 9969 9962 9955 9948 9941 9934 9926 9918 9910 9904 9898 9892 9885 9879 9872 9863 9856 9850 9844 9837 9829 9821 9814 9807 9801 9793 9786 9779 9772 9766 9761 9756 9752 9749 9745 9741 9736 9730 9723 9717 9715 9714 9710 9703 9698
10296 10285 10274 10264 10255 10246 10236 10225 10215 10208 10201 10191 10182 10174 10166 10157 10149 10141 10133 10125 10115 10106 10098 10091 10083 10075 10067 10060 10051 10043 10035 10027 10019 10013 10007 10000 9992 9985 9977 9970 9963 9956 9949 9943 9936 9929 9922 9914 9907 9899 9892 9887 9880 9873 9866 9859 9852 9844 9838 9833 9826 9818 9809 9801 9794 9788 9781 9773 9767 9761 9754 9749 9744 9739 9736 9732 9729 9724 9719 9713 9707 9703 9702 9699 9694 9689
10285 10274 10264 10254 10243 10232 10221 10210 10201 10192 10185 10177 10169 10161 10153 10145 10137 10129 10120 10112 10104 10096 10088 10081 10073 10065 10057 10050 10041 10033 10025 10017 10009 10002 9996 9989 9981 9973 9966 9958 9951 9945 9938 9931 9924 9918 9911 9903 9895 9888 9881 9874 9868 9861 9854 9847 9840 9833 9827 9820 9814 9806 9798 9790 9783 9776 9769 9762 9756 9750 9743 9737 9731 9726 9723 9720 9717 9714 9709 9703 9696 9691 9690 9688 9684 9680
10276 10265 10254 10244 10235 10225 10214 10202 10192 10183 10175 10167 10158 10150 10143 10135 10127 10119 10110 10102 10094 10086 10078 10070 10063 10055 10047 10039 10031 10023 10015 10008 10000 9993 9986 9979 9971 9963 9956 9948 9941 9934 9928 9921 9914 9907 9899 9891 9884 9876 9869 9862 9855 9848 9841 9834 9827 9821 9815 9808 9802 9795 9787 9780 9773 9765 9758 9752 9746 9739 9732 9727 9720 9715 9710 9707 9705 9703 9700 9694 9687 9681 9678 9677 9674 9671
10268 10257 10246 10236 10228 10220 10211 10199 10187 10177 10168 10160 10150 10142 10134 10126 10118 10109 10101 10092 10084 10076 10068 10060 10053 10045 10037 10029 10021 10014 10006 9999 9991 9984 9976 9969 9961 9953 9945 9938 9930 9923 9916 9909 9902 9895 9888 9881 9873 9866 9858 9851 9843 9836 9829 9822 9815 9809 9803 9798 9791 9784 9777 9769 9762 9755 9748 9742 9736 9728 9721 9716 9711 9705 9699 9696 9694 9692 9690 9685 9678 9672 9669 9668 9665 9662
10262 10253 10244 10233 10223 10215 10207 10197 10185 10173 10162 10153 10144 10135 10126 10117 10108 10099 10091 10083 10075 10067 10059 10051 10043 10036 10028 10020 10011 10003 9996 9988 9981 9974 9966 9959 9951 9943 9935 9927 9920 9913 9906 9899 9892 9885 9878 9870 9863 9855 9848 9840 9833 9825 9818 9811 9804 9798 9793 9787 9781 9774 9766 9758 9750 9744 9738 9731 9726 9719 9712 9707 9702 9697 9691 9686 9683 9682 9681 9676 9667 9661 9660 9660 9657 9653
10258 10249 10240 10230 10220 10212 10205 10197 10188 10177 10165 10154 10143 10132 10121 10111 10102 10094 10086 10077 10069 10061 10052 10043 10035 10027 10019 10011 10003 9994 9986 9979 9971 9964 9957 9950 9942 9934 9926 9919 9911 9904 9897 9890 9882 9875 9868 9860 9853 9845 9838 9831 9823 9816 9809 9802 9795 9789 9783 9777 9770 9763 9756 9748 9740 9732 9726 9721 9716 9710 9703 9698 9693 9689 9684 9678 9673 9671 9673 9671 9662 9649 9645 9650 9651 9645
10251 10242 10233 10225 10216 10208 10200 10192 10183 10174 10163 10151 10139 10128 10117 10108 10099 10091 10082 10072 10064 10055 10046 10037 10028 10019 10011 10004 9995 9987 9979 9971 9963 9956 9949 9942 9935 9926 9918 9911 9903 9895 9887 9880 9873 9865 9857 9850 9843 9836 9829 9822 9815 9808 9800 9793 9785 9778 9772 9766 9759 9753 9747 9740 9731 9723 9716 9711 9706 9701 9695 9689 9684 9680 9676 9671 9665 9660 9660 9663 9660 9647 9634 9634 9641 9640
10245 10237 10228 10219 10210 10200 10191 10182 10173 10163 10152 10142 10133 10123 10114 10104 10094 10085 10076 10067 10058 10050 10041 10032 10023 10014 10005 9997 9989 9980 9972 9964 9956 9948 9940 9933 9925 9917 9909 9902 9894 9886 9878 9871 9864 9856 9848 9840 9833 9826 9819 9812 9805 9798 9791 9783 9775 9768 9761 9755 9749 9743 9738 9732 9724 9717 9709 9702 9697 9692 9687 9681 9676 9671 9667 9663 9659 9653 9648 9648 9652 9648 9634 9623 9626 9632